Location: Castelnau
(43.6639°N, 0.8431°W)
Time: 17:24:13
(UTC+00:00)

ARIANE 6 FM1 Upper Stage - Pass Details

Date: 13 January 2026
Orbit: 522 x 609 km, 62.0° (Epoch: 11 February)

Event Time Altitude Azimuth Distance (km) Brightness Sun altitude
Exits shadow 05:13:12 40° 37° (NE) 784 3.5 -25.1°
Maximum altitude 05:13:23 41° 45° (NE) 781 3.6 -25.0°
Drops below altitude 10° 05:17:10 10° 116° (ESE) 1,782 6.2 -24.3°
Sets 05:19:29 0° 124° (SE) 2,681 7.2 -23.9°
